Regional Weather Roundup
Issued by NWS Raleigh/Durham, NC

Home | Current Version | Previous Version | Text Only | Print | Product List | Glossary On
Versions: 1 2 3 4 5 6 7 8 9 10 11 12 13 14 15 16 17 18 19 20 21 22 23 24 25 26 27 28 29 30 31 32 33 34 35 36 37 38 39 40 41 42 43 44 45 46 47 48 49 50
000
ASUS42 KRAH 280110
RWRRAH
NORTH CAROLINA WEATHER ROUNDUP
NATIONAL WEATHER SERVICE RALEIGH NC
900 PM EDT WED AUG 27 2014

NOTE: "FAIR" INDICATES FEW OR NO CLOUDS BELOW 12,000 FEET WITH NO
SIGNIFICANT WEATHER AND/OR OBSTRUCTIONS TO VISIBILITY.

NCZ001-053-055-056-065-067-280200-
WESTERN NORTH CAROLINA

CITY           SKY/WX    TMP DP  RH WIND       PRES   REMARKS
ASHEVILLE      CLEAR     72  62  71 CALM      30.12R
JEFFERSON      CLEAR     72  54  54 NW5       30.16R
MORGANTON      CLEAR     67  62  83 CALM      30.10R
HICKORY        CLEAR     76  56  49 CALM      30.04R
RUTHERFORDTON  CLEAR     71  63  77 CALM      30.06R
MOUNT AIRY     CLEAR     74  68  83 CALM      30.05S
BOONE          CLEAR     64  57  78 CALM      30.17R
$$

NCZ021-022-025-041-071-084-088-280200-
CENTRAL NORTH CAROLINA

CITY           SKY/WX    TMP DP  RH WIND       PRES   REMARKS
CHARLOTTE      PTCLDY    71  58  63 CALM      30.02S
GREENSBORO     PTCLDY    76  63  64 CALM      30.01R
WINSTON-SALEM  CLEAR     74  60  61 CALM      30.03R
RALEIGH-DURHAM PTCLDY    70  61  73 CALM      29.99R
FORT BRAGG     CLEAR     73  67  79 CALM      29.97S
FAYETTEVILLE   CLEAR     77  64  64 CALM      29.97S
BURLINGTON     CLEAR     72  60  66 CALM      30.00R
LAURINBURG     CLEAR     72  63  73 CALM      29.99R
$$

NCZ011-015-027-028-043-044-047-080-103-280200-
NORTHEASTERN NORTH CAROLINA

CITY           SKY/WX    TMP DP  RH WIND       PRES   REMARKS
ROCKY MT-WILSO CLEAR     68  65  90 SW3       29.96S
GREENVILLE     CLEAR     70  68  94 CALM      29.98S
WASHINGTON     CLEAR     73  67  81 CALM      29.96S
ELIZABETH CITY CLEAR     73  65  75 CALM      29.94F
MANTEO         CLEAR     72  68  87 N8        29.93F
CAPE HATTERAS  CLEAR     74  71  91 N8        29.92S
$$

NCZ078-087-090-091-093-098-101-280200-
SOUTHEASTERN NORTH CAROLINA

CITY           SKY/WX    TMP DP  RH WIND       PRES   REMARKS
LUMBERTON      CLEAR     71  64  78 CALM      29.98R
GOLDSBORO      CLEAR     72  67  84 SW2       29.95S
KINSTON        CLEAR     68  64  88 CALM      29.97S
KENANSVILLE    CLEAR     66  61  82 CALM      29.98S
NEW BERN       CLEAR     77  66  68 NW3       29.96S
CHERRY POINT   PTCLDY    79  68  69 NW8       29.95S
BEAUFORT       CLEAR     76  70  82 CALM      29.94R
JACKSONVILLE   CLEAR     77  66  68 NW7       29.96R
WILMINGTON     CLEAR     76  67  73 NW8       29.97R
$$



USA.gov is the U.S. government's official web portal to all federal, state and local government web resources and services.